Casa Grande, AZ

10:50 AM MST on July 24, 2016 (GMT -0700)
Casa Grande Municipal

Weather History for KCGZ - August, 2013

Change the Weather History Date:

Friday, August 16, 2013

  Actual Average Record
Temperature  
Mean Temperature 94 °F -  
Max Temperature 109 °F 99 °F 109 °F (2013)
Min Temperature 80 °F 75 °F 73 °F (1999)
Cooling Degree Days 30    
Growing Degree Days 44 (Base 50)    
Moisture  
Dew Point 56 °F    
Average Humidity 28    
Maximum Humidity 46    
Minimum Humidity 14    
Precipitation  
Precipitation 0.01 in - - ()
Sea Level Pressure  
Sea Level Pressure 29.89 in    
Wind  
Wind Speed 5 mph (SSE)    
Max Wind Speed 16 mph    
Max Gust Speed 28 mph    
Visibility 10 miles    
Events      
Averages and records for this station are not official NWS values.
T = Trace of Precipitation, MM = Missing Value Source: NWS Daily Summary

Daily Weather History Graph

Daily Weather History Graph

Search for Another Location

Airport or City:

Trip Planner

Search our weather history database for the weather conditions in past years. The results will help you decide how hot, cold, wet, or windy it might be!

Date:

Astronomy

Aug. 16, 2013 Rise Set
Actual Time 5:51 AM MST 7:10 PM MST
Civil Twilight 5:25 AM MST 7:36 PM MST
Nautical Twilight 4:54 AM MST 8:07 PM MST
Astronomical Twilight 4:21 AM MST 8:39 PM MST
Moon 3:27 PM MST (8/16) 1:03 AM MST (8/16)
Length of Visible Light 14h 11m
Length of Day
13h 19m
Waxing Gibbous, 76% of the Moon is Illuminated
Aug 16
Waxing Gibbous
Aug 20
Full
Aug 28
Last Quarter
Sep 5
New
Sep 12
First Quarter

Hourly Weather History & Observations

Time (MST) Temp. Heat Index Dew Point Humidity Pressure Visibility Wind Dir Wind Speed Gust Speed Precip Events Conditions
12:15 AM 89.6 °F 87.3 °F 53.6 °F 29% 29.89 in 10.0 mi SW 6.9 mph - N/A   Clear
12:35 AM 89.6 °F 87.3 °F 53.6 °F 29% 29.88 in 10.0 mi West 3.5 mph - N/A   Clear
12:55 AM 87.8 °F 85.7 °F 53.6 °F 31% 29.89 in 10.0 mi Calm Calm - N/A   Clear
1:15 AM 86.0 °F 84.2 °F 53.6 °F 33% 29.88 in 10.0 mi NNW 5.8 mph - N/A   Clear
1:35 AM 87.8 °F 86.1 °F 55.4 °F 33% 29.87 in 10.0 mi North 6.9 mph - N/A   Clear
1:55 AM 86.0 °F 84.2 °F 53.6 °F 33% 29.88 in 10.0 mi North 8.1 mph - N/A   Clear
2:15 AM 86.0 °F 84.2 °F 53.6 °F 33% 29.88 in 10.0 mi North 5.8 mph - N/A   Clear
2:35 AM 84.2 °F 82.8 °F 53.6 °F 35% 29.88 in 10.0 mi Calm Calm - N/A   Clear
2:55 AM 84.2 °F 82.8 °F 53.6 °F 35% 29.88 in 10.0 mi North 9.2 mph - N/A   Clear
3:15 AM 86.0 °F 84.2 °F 53.6 °F 33% 29.87 in 10.0 mi North 5.8 mph - N/A   Clear
3:35 AM 84.2 °F 82.8 °F 53.6 °F 35% 29.88 in 10.0 mi North 4.6 mph - N/A   Clear
3:55 AM 86.0 °F 84.2 °F 53.6 °F 33% 29.88 in 10.0 mi North 3.5 mph - N/A   Clear
4:15 AM 84.2 °F 83.0 °F 55.4 °F 37% 29.89 in 10.0 mi South 3.5 mph - N/A   Clear
4:35 AM 82.4 °F 81.4 °F 53.6 °F 37% 29.89 in 10.0 mi Calm Calm - N/A   Clear
4:55 AM 82.4 °F 81.7 °F 55.4 °F 39% 29.89 in 10.0 mi South 3.5 mph - N/A   Clear
5:15 AM 82.4 °F 81.7 °F 55.4 °F 39% 29.90 in 10.0 mi Calm Calm - N/A   Clear
5:35 AM 80.6 °F 80.5 °F 55.4 °F 42% 29.90 in 10.0 mi ENE 6.9 mph - N/A   Clear
5:55 AM 82.4 °F 81.7 °F 55.4 °F 39% 29.91 in 10.0 mi East 4.6 mph - N/A   Clear
6:15 AM 82.4 °F 82.0 °F 57.2 °F 42% 29.91 in 10.0 mi SE 4.6 mph - N/A   Clear
6:35 AM 82.4 °F 82.0 °F 57.2 °F 42% 29.92 in 10.0 mi Calm Calm - N/A   Clear
6:55 AM 82.4 °F 82.0 °F 57.2 °F 42% 29.92 in 10.0 mi Calm Calm - N/A   Clear
7:15 AM 87.8 °F 86.5 °F 57.2 °F 35% 29.93 in 10.0 mi East 4.6 mph - N/A   Clear
7:35 AM 87.8 °F 86.5 °F 57.2 °F 35% 29.93 in 10.0 mi SSE 3.5 mph - N/A   Clear
7:55 AM 89.6 °F 88.1 °F 57.2 °F 33% 29.94 in 10.0 mi SSE 4.6 mph - N/A   Clear
8:15 AM 91.4 °F 89.9 °F 57.2 °F 31% 29.94 in 10.0 mi SSE 6.9 mph - N/A   Clear
8:35 AM 93.2 °F 91.9 °F 57.2 °F 30% 29.94 in 10.0 mi SSE 5.8 mph - N/A   Clear
8:55 AM 93.2 °F 91.9 °F 57.2 °F 30% 29.94 in 10.0 mi SSE 5.8 mph - N/A   Clear
9:15 AM 95.0 °F 93.7 °F 57.2 °F 28% 29.94 in 10.0 mi SSE 4.6 mph - N/A   Clear
9:35 AM 95.0 °F 93.7 °F 57.2 °F 28% 29.94 in 10.0 mi East 5.8 mph - N/A   Clear
9:55 AM 96.8 °F 95.8 °F 57.2 °F 27% 29.95 in 10.0 mi SE 4.6 mph - N/A   Clear
10:15 AM 98.6 °F 97.6 °F 57.2 °F 25% 29.94 in 10.0 mi ESE 8.1 mph - N/A   Clear
10:35 AM 98.6 °F 97.6 °F 57.2 °F 25% 29.94 in 10.0 mi SE 5.8 mph - N/A   Clear
10:55 AM 98.6 °F 97.6 °F 57.2 °F 25% 29.93 in 10.0 mi SSE 5.8 mph - N/A   Clear
11:15 AM 100.4 °F 99.7 °F 57.2 °F 24% 29.93 in 10.0 mi SSE 6.9 mph - N/A   Clear
11:35 AM 102.2 °F 101.4 °F 57.2 °F 22% 29.93 in 10.0 mi ESE 3.5 mph - N/A   Clear
11:55 AM 102.2 °F 101.4 °F 57.2 °F 22% 29.92 in 10.0 mi SE 3.5 mph - N/A   Clear
12:15 PM 104.0 °F 103.4 °F 57.2 °F 21% 29.91 in 10.0 mi SE 6.9 mph - N/A   Clear
12:35 PM 105.8 °F 105.5 °F 57.2 °F 20% 29.90 in 10.0 mi SSE 6.9 mph - N/A   Clear
12:55 PM 105.8 °F 104.9 °F 55.4 °F 19% 29.89 in 10.0 mi West 3.5 mph - N/A   Clear
1:15 PM 105.8 °F 104.9 °F 55.4 °F 19% 29.89 in 10.0 mi Calm Calm - N/A   Clear
1:35 PM 105.8 °F 104.9 °F 55.4 °F 19% 29.88 in 10.0 mi North 3.5 mph - N/A   Clear
1:55 PM 107.6 °F 106.8 °F 55.4 °F 18% 29.87 in 10.0 mi East 6.9 mph - N/A   Clear
2:15 PM 107.6 °F 106.1 °F 53.6 °F 17% 29.86 in 10.0 mi Calm Calm - N/A   Clear
2:35 PM 107.6 °F 106.1 °F 53.6 °F 17% 29.85 in 10.0 mi SE 4.6 mph - N/A   Clear
2:55 PM 107.6 °F 106.1 °F 53.6 °F 17% 29.84 in 10.0 mi ESE 3.5 mph - N/A   Clear
3:15 PM 107.6 °F - 51.8 °F 16% 29.84 in 10.0 mi SSW 8.1 mph - N/A   Clear
3:35 PM 109.4 °F - 50.0 °F 14% 29.83 in 10.0 mi West 4.6 mph - N/A   Clear
3:55 PM 109.4 °F - 50.0 °F 14% 29.82 in 10.0 mi West 6.9 mph - N/A   Clear
4:15 PM 107.6 °F - 50.0 °F 15% 29.81 in 10.0 mi NE 10.4 mph - N/A   Clear
4:35 PM 109.4 °F - 50.0 °F 14% 29.81 in 10.0 mi WSW 9.2 mph - N/A   Clear
4:55 PM 109.4 °F - 51.8 °F 15% 29.81 in 10.0 mi WNW 6.9 mph - N/A   Clear
5:15 PM 107.6 °F - 50.0 °F 15% 29.81 in 10.0 mi North 5.8 mph - N/A   Clear
5:35 PM 107.6 °F - 51.8 °F 16% 29.81 in 10.0 mi ESE 3.5 mph - N/A   Clear
5:55 PM 107.6 °F - 51.8 °F 16% 29.81 in 10.0 mi South 5.8 mph - N/A   Clear
6:15 PM 107.6 °F - 51.8 °F 16% 29.81 in 10.0 mi West 6.9 mph - N/A   Clear
6:35 PM 107.6 °F - 51.8 °F 16% 29.82 in 10.0 mi WNW 4.6 mph - N/A   Clear
6:55 PM 107.6 °F - 50.0 °F 15% 29.82 in 10.0 mi NW 6.9 mph - N/A   Clear
7:15 PM 105.8 °F - 50.0 °F 15% 29.84 in 10.0 mi NNW 4.6 mph - N/A   Clear
7:35 PM 105.8 °F - 48.2 °F 14% 29.85 in 10.0 mi Calm Calm - N/A   Clear
7:55 PM 98.6 °F 97.2 °F 55.4 °F 24% 29.89 in 6.0 mi East 16.1 mph - N/A   Clear
8:15 PM 91.4 °F 93.2 °F 64.4 °F 41% 29.89 in 10.0 mi South 11.5 mph 27.6 mph 0.01 in   Scattered Clouds
8:35 PM 91.4 °F 94.0 °F 66.2 °F 43% 29.89 in 10.0 mi South 9.2 mph - 0.01 in   Partly Cloudy
8:55 PM 91.4 °F 94.0 °F 66.2 °F 43% 29.91 in 10.0 mi SW 4.6 mph - 0.01 in   Clear
9:15 PM 91.4 °F 95.4 °F 68.0 °F 46% 29.93 in 10.0 mi SE 13.8 mph - N/A   Clear
9:35 PM 91.4 °F 91.4 °F 60.8 °F 36% 29.94 in 10.0 mi SE 13.8 mph - N/A   Clear
9:55 PM 89.6 °F 89.5 °F 60.8 °F 38% 29.93 in 7.0 mi South 15.0 mph - N/A   Clear
10:15 PM 89.6 °F 89.5 °F 60.8 °F 38% 29.93 in 6.0 mi SSE 13.8 mph - N/A   Clear
10:35 PM 89.6 °F 89.5 °F 60.8 °F 38% 29.93 in 10.0 mi South 6.9 mph - N/A   Clear
10:55 PM 91.4 °F 89.9 °F 57.2 °F 31% 29.92 in 10.0 mi SSW 6.9 mph - N/A   Clear
11:15 PM 89.6 °F 88.1 °F 57.2 °F 33% 29.91 in 10.0 mi WSW 4.6 mph - N/A   Clear
11:35 PM 89.6 °F 88.9 °F 59.0 °F 36% 29.92 in 10.0 mi West 4.6 mph - N/A   Clear
11:55 PM 91.4 °F 89.9 °F 57.2 °F 31% 29.90 in 10.0 mi West 5.8 mph - N/A   Clear